Wind_Speed
22 22 23 23 22 14 13 13 13 13 12 12 12 12 11 10 10 10 10 10 10 10 9 9 7 6 6 6 6 6 6 7 8 9 10 10 10 10 11 11 11 11 11 11 11 11 11 11 11
22 21 24 23 15 12 13 13 13 13 13 13 13 12 11 11 10 10 10 10 10 10 9 8 7 6 5 5 5 5 5 6 7 8 9 9 9 10 10 10 10 11 11 11 11 11 11 11 11
24 25 24 16 11 12 14 14 13 13 13 14 13 12 11 10 10 10 10 10 10 9 8 7 7 6 5 5 4 5 6 6 7 7 8 8 8 9 9 10 10 10 11 11 11 10 10 10 11
25 28 20 14 13 14 14 14 14 13 14 14 14 12 11 11 10 10 10 9 10 9 8 8 7 5 5 4 4 4 5 5 6 6 7 7 8 9 9 10 10 10 10 10 10 10 10 10 10
26 24 15 14 14 14 14 14 15 14 15 15 15 14 13 12 12 11 10 10 10 9 9 8 7 5 4 3 3 4 4 5 5 5 6 7 8 8 9 9 9 9 9 10 10 10 9 10 10
23 17 11 13 13 14 14 14 14 14 15 15 15 15 14 13 13 12 12 11 11 10 9 8 6 5 4 4 4 4 4 5 5 5 5 5 6 7 7 8 8 8 9 9 9 9 9 9 9
19 14 10 11 12 13 13 14 14 15 15 15 16 15 15 14 14 13 12 12 11 10 9 8 7 6 5 4 5 4 4 5 5 5 5 5 6 7 7 7 7 8 8 9 8 8 9 9 9
15 11 9 9 10 11 12 14 14 15 15 15 16 15 15 15 14 13 12 11 10 10 9 8 7 6 5 5 5 4 4 5 5 6 6 6 6 6 6 7 7 7 7 8 8 8 8 8 8
12 9 8 7 8 10 12 14 14 15 15 15 15 16 15 15 14 13 12 11 10 10 9 7 7 6 5 5 5 5 4 5 5 5 6 5 5 5 5 6 6 6 7 7 7 7 7 7 7
8 7 7 6 7 9 11 13 14 15 15 15 15 16 16 16 15 14 13 13 12 10 9 8 6 6 6 6 6 6 5 4 5 5 5 5 5 5 5 5 5 5 6 6 6 6 6 6 6
6 6 6 5 5 8 10 12 12 13 14 15 15 16 17 16 16 15 14 13 13 13 11 9 7 6 6 6 6 5 5 4 5 5 5 5 5 5 5 5 5 5 5 6 6 6 5 5 5
4 4 4 4 5 6 8 10 10 12 13 14 15 16 17 17 17 17 16 14 14 13 12 10 9 8 7 6 6 6 5 4 4 4 4 5 5 4 4 5 4 4 5 5 5 5 5 4 4
2 2 3 4 4 5 6 8 11 13 14 14 15 16 17 18 18 17 16 15 14 15 14 12 10 9 8 6 6 5 4 4 3 3 4 4 4 4 4 4 4 4 4 4 4 4 3 3 4
3 2 2 4 4 4 4 8 10 12 14 14 15 16 17 18 18 18 17 16 16 16 16 13 11 10 8 7 7 6 5 5 4 3 3 3 3 3 3 3 3 3 3 3 3 3 2 2 2
5 3 1 3 5 6 6 7 8 10 13 14 15 16 16 17 18 18 18 17 17 17 17 16 13 12 10 8 7 7 6 5 4 3 3 2 2 2 2 2 2 3 2 2 1 1 1 1 1
4 3 3 2 2 5 5 6 8 11 12 13 14 15 16 16 17 18 18 17 16 16 17 16 14 14 13 10 9 8 7 6 5 4 3 2 1 2 2 1 1 1 1 1 1 0 0 0 0
4 4 5 5 4 3 4 5 8 11 12 13 13 13 15 15 16 17 17 17 16 16 16 16 15 14 13 12 10 9 8 7 5 4 3 2 2 2 2 1 0 0 0 0 0 1 1 2 2
8 7 6 8 6 3 5 4 7 10 11 12 13 13 14 14 15 16 16 16 16 16 16 15 14 14 13 13 11 10 9 8 6 4 3 3 2 3 3 2 2 1 2 2 2 2 2 3 3
10 9 9 10 9 5 5 5 7 8 9 11 12 13 13 13 14 15 15 15 16 16 15 14 14 14 14 13 11 10 9 8 7 6 4 4 4 4 5 4 4 3 3 3 3 3 4 4 4
13 11 10 10 10 6 6 7 7 9 10 11 12 12 12 13 13 14 14 14 15 15 15 14 13 13 13 13 12 10 9 8 7 6 5 4 5 5 6 5 5 4 5 5 5 5 6 6 6
15 12 11 10 9 7 7 9 10 11 10 11 11 12 12 12 12 13 13 14 14 14 15 14 14 13 13 12 12 11 9 9 8 6 6 5 5 6 7 7 6 6 6 6 6 6 7 8 8
16 14 13 11 9 8 10 11 14 13 11 11 11 12 12 12 12 12 13 13 14 14 14 14 15 14 13 12 12 11 10 10 9 8 6 6 6 6 7 7 7 7 6 6 7 8 8 9 9
17 16 14 13 12 11 11 12 13 14 12 12 13 12 11 11 11 12 12 13 13 13 14 14 14 14 14 13 13 12 11 10 10 9 7 7 6 7 7 7 8 7 7 7 8 9 9 10 11
18 16 14 12 13 14 13 13 13 13 14 14 14 13 12 11 11 12 12 13 13 13 13 14 14 14 14 13 13 13 12 11 10 9 9 8 8 8 8 8 8 8 8 8 8 9 10 10 10
20 17 13 13 13 15 13 14 16 14 14 13 13 13 12 11 11 11 12 12 13 13 13 13 14 14 14 14 13 13 13 12 12 11 10 10 10 9 8 8 8 8 9 9 10 10 10 10 9
21 19 17 14 13 13 13 15 17 16 15 14 13 13 12 12 12 12 13 13 13 13 13 13 14 14 14 14 14 13 13 13 13 13 12 12 11 10 10 10 10 10 10 10 11 11 10 10 10
23 21 19 17 14 13 13 16 17 17 17 15 15 14 14 12 13 13 13 13 12 13 13 14 13 14 14 14 14 14 13 13 13 13 13 13 12 11 11 11 11 11 11 12 11 11 11 11 11
24 21 21 21 20 16 14 15 18 19 17 15 16 15 14 14 13 14 14 14 14 13 13 14 14 13 14 14 14 14 14 14 13 13 14 14 12 12 12 12 12 12 12 13 13 13 13 12 12
25 23 22 22 21 18 16 16 19 20 19 18 16 16 14 14 14 14 15 15 14 14 14 14 14 14 14 14 15 15 15 15 14 15 15 14 14 12 12 13 13 12 13 13 13 14 13 13 13
25 25 24 24 24 23 20 19 19 20 21 21 19 17 16 17 16 15 16 15 15 15 14 14 14 15 15 15 15 15 15 16 16 16 16 15 15 14 13 13 13 13 13 13 13 13 13 14 14
Wind_Direction
72 70 65 59 55 49 53 57 58 59 59 57 56 55 56 54 51 50 52 55 56 54 57 56 58 62 61 68 75 83 96 103 108 107 103 105 105 103 103 103 99 96 94 91 91 89 87 83 82
72 68 62 57 50 42 51 56 58 56 55 53 53 53 53 51 51 48 49 53 55 55 54 55 57 59 57 60 69 79 87 98 106 104 104 106 106 106 105 104 100 96 95 92 90 89 88 85 82
70 62 60 55 51 48 51 52 53 52 51 51 49 51 51 50 51 47 47 53 53 53 55 57 57 53 52 59 71 78 87 97 99 98 102 105 105 104 104 104 100 98 96 94 92 90 89 87 85
70 62 54 48 50 52 52 52 52 51 49 49 48 47 49 50 50 46 47 50 51 51 52 54 52 50 47 52 70 79 85 93 96 97 104 103 103 104 104 104 100 97 96 94 92 90 88 88 88
69 66 49 45 48 49 51 51 50 49 50 49 47 46 47 47 47 46 47 50 51 48 47 49 50 48 43 53 78 80 86 88 90 94 99 101 102 105 106 105 101 98 98 96 94 92 90 88 87
73 67 44 43 45 46 49 49 47 46 46 47 46 44 44 44 44 44 43 48 48 46 46 46 45 38 39 56 70 73 77 80 85 94 98 100 100 102 106 105 103 100 99 96 95 94 91 88 85
77 74 49 39 41 44 47 46 46 43 42 43 43 42 42 42 41 42 41 43 45 45 45 43 42 41 44 56 61 67 75 81 81 86 97 102 98 99 106 105 105 104 103 100 99 97 91 88 86
78 72 57 34 34 43 44 44 46 44 41 40 40 41 41 41 41 41 40 41 42 45 45 42 42 42 44 61 67 63 69 81 81 84 91 98 95 103 110 109 107 107 108 105 100 98 93 89 85
82 74 58 34 29 39 41 44 43 44 41 40 40 40 40 40 41 41 40 39 40 40 40 40 42 46 50 61 61 60 68 80 83 84 84 91 97 105 111 113 113 110 109 107 101 96 93 90 84
76 87 69 40 28 36 40 40 35 36 38 39 39 38 38 38 39 39 39 37 36 33 35 39 43 46 52 55 55 58 69 81 80 81 82 89 97 104 106 107 115 116 112 108 104 99 95 92 86
82 74 75 55 38 38 38 38 34 28 32 36 37 38 37 37 39 41 39 36 35 30 33 37 40 44 49 52 55 55 61 80 84 79 80 86 94 101 100 99 105 112 111 106 103 100 97 95 88
97 87 90 79 63 48 41 39 30 28 31 34 36 37 37 37 37 38 38 36 35 34 33 36 35 39 42 47 49 53 62 75 83 76 79 82 85 95 93 91 104 112 113 110 103 98 96 94 91
113 73 75 73 70 62 50 40 26 27 28 30 32 34 34 35 36 36 37 37 36 33 32 35 36 37 38 41 39 48 59 69 82 85 81 78 78 88 92 93 104 112 111 110 104 98 99 87 83
166 115 63 42 37 35 47 36 19 20 22 26 29 33 35 34 35 35 35 36 35 33 33 35 36 35 37 39 38 42 50 62 76 84 84 83 81 89 97 95 95 105 103 107 106 108 108 91 72
158 140 66 15 11 13 28 28 8 9 15 21 27 30 32 34 33 33 34 34 35 32 32 33 35 33 35 37 38 40 44 53 68 75 72 76 77 70 81 95 90 95 96 104 107 117 125 90 67
174 179 212 295 343 348 10 13 354 355 11 15 22 27 28 30 30 29 30 32 32 31 32 34 34 33 35 39 41 45 46 50 54 56 50 44 56 45 43 48 89 101 106 112 118 354 275 291 304
216 212 224 253 275 314 335 349 337 350 7 11 14 21 24 23 25 26 27 28 29 30 31 33 33 32 34 39 41 44 42 44 48 51 50 41 30 26 15 359 9 148 273 280 249 267 263 260 256
214 224 232 247 255 273 291 322 328 345 355 3 10 14 17 18 20 21 21 22 24 24 25 26 28 30 31 33 34 35 36 38 38 39 49 45 30 9 2 345 304 295 293 280 277 280 290 275 269
205 211 226 245 254 239 269 301 315 331 344 352 1 6 10 12 14 15 15 17 18 20 20 20 24 26 27 29 30 30 31 30 31 30 32 30 20 7 1 349 325 305 293 285 289 293 285 284 284
204 210 226 248 257 246 249 273 300 312 329 339 346 353 2 4 7 9 10 12 13 13 16 16 16 19 20 23 24 24 24 24 23 24 21 15 6 3 356 340 323 313 296 287 289 293 285 281 283
206 208 219 234 257 270 269 268 285 302 320 323 332 343 352 356 1 4 7 8 10 10 11 13 13 12 12 15 17 17 16 16 14 11 7 5 354 349 349 341 327 319 303 290 293 298 292 287 284
212 212 214 219 228 251 271 267 276 287 301 313 322 332 341 348 354 358 360 2 4 7 6 8 9 7 6 7 9 9 10 11 8 5 0 357 353 345 343 345 343 330 315 297 296 297 291 289 289
215 216 214 216 218 228 248 267 265 280 287 302 312 320 327 335 343 346 349 353 356 1 4 4 5 5 4 3 4 3 3 3 0 358 356 348 344 340 338 340 341 332 315 303 297 299 292 289 290
216 215 218 220 220 231 236 254 265 271 281 289 298 307 311 319 329 335 341 345 349 352 357 359 359 0 1 0 360 359 360 358 356 352 350 347 340 331 326 325 328 328 319 312 305 303 301 299 296
218 214 219 229 231 236 239 246 255 264 275 280 286 293 300 305 311 318 330 337 342 345 348 350 352 353 354 354 354 352 351 350 349 349 345 337 333 330 324 319 317 320 320 317 318 312 307 307 305
223 216 213 222 235 248 251 246 255 263 267 272 275 281 288 294 302 309 319 328 337 337 339 340 342 343 343 345 346 346 344 343 341 341 340 335 331 329 326 320 314 314 316 316 316 317 311 310 308
225 219 217 225 230 236 243 255 260 262 266 270 273 276 282 286 291 299 307 319 326 330 331 334 334 336 337 338 340 340 339 338 338 337 335 331 329 327 323 319 316 313 310 309 309 310 311 309 309
223 224 218 220 229 233 243 255 261 265 271 271 270 278 279 282 285 292 300 309 315 320 321 324 327 328 330 333 334 333 332 332 334 334 333 327 324 321 320 316 313 310 307 305 304 304 305 305 304
221 220 221 224 225 229 238 240 253 262 268 268 270 272 273 275 278 283 290 301 306 310 313 316 320 323 324 327 329 329 329 331 331 330 329 329 326 323 322 317 313 309 308 306 304 302 300 300 301
225 224 224 225 226 224 231 246 250 257 262 268 268 270 268 272 276 279 282 289 297 304 309 315 320 322 324 323 323 324 326 325 325 325 327 327 327 323 320 317 314 313 310 308 305 305 301 300 301
Height
5910 5908 5907 5906 5906 5908 5906 5905 5903 5902 5900 5899 5897 5896 5894 5894 5894 5896 5892 5890 5890 5889 5888 5888 5888 5888 5888 5888 5888 5888 5888 5887 5887 5887 5887 5887 5887 5888 5888 5889 5889 5890 5890 5891 5891 5891 5892 5892 5892
5913 5911 5908 5910 5913 5911 5909 5908 5906 5905 5903 5901 5900 5899 5897 5896 5895 5895 5893 5892 5892 5891 5890 5890 5890 5890 5890 5890 5890 5890 5889 5889 5889 5889 5889 5889 5889 5889 5890 5890 5891 5892 5892 5893 5893 5894 5894 5894 5894
5915 5913 5913 5917 5916 5914 5913 5911 5909 5907 5905 5904 5903 5902 5900 5899 5897 5896 5895 5894 5894 5893 5892 5892 5892 5892 5892 5892 5891 5891 5891 5891 5891 5891 5891 5891 5891 5891 5892 5893 5893 5894 5894 5895 5895 5896 5896 5896 5896
5917 5916 5921 5921 5919 5917 5916 5914 5912 5910 5908 5907 5905 5904 5901 5900 5899 5898 5897 5896 5896 5895 5894 5894 5894 5894 5894 5893 5893 5893 5893 5893 5893 5893 5893 5893 5893 5893 5894 5894 5895 5896 5896 5897 5897 5898 5898 5898 5898
5919 5922 5926 5924 5922 5920 5918 5916 5915 5913 5911 5910 5908 5906 5904 5903 5901 5900 5899 5898 5898 5897 5896 5896 5895 5895 5895 5895 5894 5894 5894 5895 5894 5894 5894 5895 5895 5895 5896 5896 5897 5898 5898 5899 5899 5900 5900 5900 5900
5924 5928 5930 5927 5926 5924 5922 5920 5918 5916 5914 5912 5910 5909 5907 5905 5904 5902 5901 5900 5899 5899 5898 5897 5897 5897 5896 5896 5896 5896 5896 5896 5896 5896 5896 5897 5897 5897 5897 5898 5899 5899 5900 5900 5901 5901 5902 5902 5902
5931 5933 5933 5930 5929 5927 5925 5923 5921 5919 5917 5915 5913 5911 5909 5908 5906 5904 5903 5902 5901 5900 5900 5899 5899 5898 5898 5897 5897 5897 5897 5897 5897 5897 5898 5898 5899 5899 5899 5900 5900 5901 5901 5902 5902 5903 5903 5903 5903
5934 5936 5935 5933 5931 5930 5928 5925 5924 5922 5920 5918 5916 5914 5912 5910 5908 5907 5905 5904 5903 5902 5902 5901 5900 5900 5899 5899 5899 5899 5899 5899 5899 5899 5899 5900 5900 5900 5901 5901 5902 5902 5903 5903 5904 5904 5905 5905 5905
5938 5939 5937 5936 5934 5932 5930 5928 5926 5925 5923 5921 5919 5917 5915 5913 5911 5909 5907 5906 5905 5904 5903 5902 5902 5901 5901 5900 5900 5900 5900 5900 5900 5900 5901 5901 5902 5902 5902 5903 5903 5904 5904 5905 5905 5906 5906 5906 5907
5941 5940 5940 5939 5936 5934 5932 5931 5929 5927 5926 5924 5922 5920 5917 5915 5913 5911 5910 5908 5907 5905 5905 5904 5902 5903 5902 5902 5902 5902 5902 5902 5902 5902 5902 5902 5903 5903 5904 5904 5905 5905 5906 5906 5907 5907 5907 5908 5908
5943 5942 5941 5941 5939 5937 5935 5933 5932 5930 5928 5926 5925 5922 5920 5918 5916 5914 5912 5910 5909 5907 5906 5905 5904 5904 5904 5904 5903 5903 5903 5902 5903 5903 5903 5904 5904 5904 5905 5905 5906 5907 5907 5908 5908 5908 5909 5909 5909
5944 5943 5943 5942 5941 5939 5938 5936 5935 5933 5931 5929 5927 5925 5923 5920 5918 5916 5915 5913 5911 5910 5908 5906 5906 5906 5905 5905 5904 5904 5904 5904 5904 5904 5905 5905 5905 5906 5906 5907 5907 5908 5908 5909 5909 5910 5910 5910 5910
5945 5945 5944 5942 5942 5941 5939 5938 5937 5935 5933 5931 5929 5927 5925 5923 5921 5919 5917 5915 5914 5912 5910 5909 5908 5907 5907 5906 5906 5906 5905 5905 5905 5905 5906 5906 5907 5907 5908 5908 5908 5909 5909 5910 5910 5911 5911 5911 5911
5946 5946 5945 5944 5943 5941 5940 5939 5938 5937 5935 5933 5931 5929 5927 5925 5923 5922 5920 5918 5917 5915 5913 5911 5910 5909 5908 5908 5907 5907 5906 5906 5906 5906 5907 5907 5908 5908 5908 5909 5909 5910 5910 5911 5911 5912 5912 5912 5912
5945 5946 5946 5946 5945 5943 5942 5941 5940 5938 5937 5935 5933 5932 5930 5927 5926 5924 5922 5921 5919 5918 5915 5914 5912 5911 5910 5909 5908 5908 5908 5907 5907 5907 5908 5908 5909 5909 5909 5909 5910 5910 5911 5911 5912 5912 5912 5912 5912
5945 5947 5948 5948 5948 5946 5945 5944 5942 5940 5938 5937 5935 5933 5932 5929 5927 5927 5925 5923 5922 5920 5918 5916 5915 5913 5912 5911 5910 5909 5909 5909 5908 5908 5909 5909 5909 5910 5910 5910 5910 5911 5911 5911 5912 5912 5912 5912 5912
5946 5948 5949 5949 5949 5948 5947 5945 5944 5942 5940 5938 5937 5935 5934 5932 5930 5929 5927 5925 5924 5922 5920 5918 5917 5916 5914 5912 5911 5911 5910 5910 5910 5910 5910 5910 5910 5910 5910 5910 5910 5911 5911 5911 5912 5912 5912 5912 5912
5948 5950 5950 5950 5948 5949 5947 5946 5945 5944 5941 5940 5938 5937 5936 5935 5933 5931 5929 5927 5926 5924 5922 5921 5919 5917 5916 5914 5913 5912 5912 5911 5911 5910 5910 5910 5911 5911 5911 5910 5910 5911 5911 5911 5911 5911 5912 5912 5911
5946 5949 5950 5950 5948 5948 5948 5947 5946 5945 5943 5942 5940 5939 5938 5936 5934 5933 5931 5929 5928 5926 5924 5923 5921 5919 5917 5916 5915 5914 5913 5912 5912 5911 5911 5911 5911 5911 5911 5911 5911 5910 5910 5910 5910 5910 5911 5911 5911
5943 5947 5948 5949 5947 5947 5947 5947 5946 5945 5944 5942 5941 5939 5938 5937 5936 5934 5932 5931 5929 5928 5926 5924 5923 5921 5919 5918 5916 5915 5915 5914 5913 5912 5912 5912 5911 5911 5911 5910 5910 5910 5910 5910 5910 5910 5910 5910 5910
5941 5944 5947 5948 5947 5946 5947 5946 5946 5945 5944 5943 5942 5941 5939 5938 5937 5935 5934 5932 5931 5929 5927 5926 5924 5923 5921 5919 5918 5917 5916 5914 5914 5913 5912 5912 5911 5911 5910 5910 5909 5909 5908 5909 5909 5908 5908 5908 5908
5938 5942 5944 5945 5947 5947 5948 5947 5946 5943 5944 5943 5942 5941 5940 5939 5938 5936 5935 5933 5931 5930 5928 5927 5925 5924 5922 5921 5919 5918 5917 5915 5914 5913 5912 5912 5911 5910 5910 5909 5908 5908 5908 5907 5907 5907 5906 5906 5906
5935 5938 5940 5942 5944 5947 5947 5947 5945 5942 5941 5942 5942 5941 5941 5939 5938 5937 5935 5934 5932 5931 5929 5928 5926 5924 5923 5921 5920 5918 5917 5916 5914 5913 5912 5911 5910 5909 5909 5908 5908 5907 5906 5906 5906 5905 5904 5904 5904
5931 5935 5937 5939 5942 5944 5946 5946 5945 5943 5942 5942 5942 5941 5940 5939 5938 5937 5935 5934 5932 5931 5930 5928 5927 5925 5923 5922 5920 5918 5917 5916 5914 5913 5911 5910 5909 5908 5908 5907 5906 5906 5905 5905 5904 5903 5903 5902 5901
5928 5932 5935 5937 5939 5941 5944 5944 5944 5943 5942 5941 5941 5940 5939 5938 5937 5936 5934 5933 5932 5931 5929 5928 5927 5925 5924 5922 5920 5919 5917 5915 5914 5912 5911 5909 5908 5907 5906 5906 5905 5904 5904 5903 5902 5901 5900 5900 5899
5924 5929 5933 5936 5939 5940 5941 5941 5942 5941 5941 5940 5940 5939 5938 5937 5936 5935 5933 5932 5931 5930 5929 5928 5926 5925 5923 5922 5920 5918 5916 5915 5913 5912 5910 5908 5907 5906 5905 5904 5904 5903 5902 5902 5900 5899 5898 5898 5897
5921 5924 5930 5934 5935 5938 5939 5939 5939 5938 5938 5938 5937 5937 5936 5936 5935 5933 5931 5930 5930 5929 5928 5927 5925 5924 5922 5921 5919 5917 5915 5913 5912 5910 5909 5907 5906 5905 5904 5903 5902 5901 5901 5900 5899 5898 5897 5896 5895
5917 5921 5925 5929 5931 5934 5937 5937 5935 5935 5935 5936 5935 5934 5934 5933 5933 5932 5930 5930 5929 5928 5927 5925 5924 5922 5921 5920 5918 5916 5914 5912 5910 5909 5907 5904 5903 5903 5902 5901 5900 5899 5898 5897 5896 5895 5894 5893 5892
5912 5917 5920 5924 5927 5931 5933 5935 5932 5931 5932 5932 5932 5931 5931 5931 5930 5930 5929 5928 5927 5926 5925 5924 5922 5921 5919 5918 5917 5915 5913 5911 5909 5907 5906 5903 5902 5901 5900 5899 5898 5897 5896 5895 5894 5893 5892 5891 5890
5908 5911 5916 5919 5921 5924 5927 5930 5926 5928 5928 5928 5928 5929 5928 5928 5927 5927 5926 5925 5924 5924 5923 5922 5921 5919 5918 5916 5915 5913 5911 5909 5907 5906 5904 5902 5900 5899 5898 5896 5895 5894 5893 5892 5891 5890 5889 5888 5886